Location: New Canada
(47.1017°N, 68.5042°W)
Time: 11:45:42
(UTC+00:00)

X-37B - Pass Details

Date: 08 December 2022
Orbit: 277 x 277 km, 45.0° (Epoch: 01 November)

Event Time Altitude Azimuth Distance (km) Brightness Sun altitude
Rises 21:58:57 0° 214° (SW) 1,905 5.1 -12.1°
Reaches altitude 10° 22:01:29 10° 184° (S) 1,097 3.2 -12.5°
Maximum altitude 22:02:46 13° 152° (SSE) 943 2.5 -12.7°
Enters shadow 22:03:29 12° 133° (SE) 993 2.4 -12.8°
